Location: Unspecified
(0.0000°N, 0.0000°E)
Time: 06:29:54
(UTC+01:00)

USA 116 - Visible Passes

Search period start: 31 January 2015 00:00
Search period end: 10 February 2015 00:00
Orbit: 405 x 834 km, 97.9° (Epoch: 18 November)

Date Brightness Start Highest point End Pass type
(mag) Time Alt. Az. Time Alt. Az. Time Alt. Az.
31 Jan 6.3 05:12:39 10° SSE 05:12:46 11° SSE 05:12:46 11° SSE visible
01 Feb 6.0 05:27:05 10° S 05:27:22 12° S 05:27:22 12° S visible
02 Feb 5.8 05:41:46 10° S 05:42:00 12° S 05:42:00 12° S visible
07 Feb 6.3 05:18:12 10° SSE 05:18:13 10° SSE 05:18:13 10° SSE visible
08 Feb 6.0 05:32:43 10° S 05:32:53 11° S 05:32:53 11° S visible
09 Feb 5.9 05:47:28 10° SSW 05:47:34 11° SSW 05:47:34 11° SSW visible
